Location: Sungai Anya
(2.6167°N, 114.0500°E)
Time: 12:29:15
(UTC+00:00)

ARGOS - Pass Details

Date: 19 October 2021
Orbit: 820 x 835 km, 98.4° (Epoch: 28 November)

Event Time Altitude Azimuth Distance (km) Brightness Sun altitude
Rises 11:14:29 0° 166° (SSE) 3,351 6.3 -16.6°
Reaches altitude 10° 11:16:50 10° 165° (SSE) 2,418 5.5 -17.2°
Maximum altitude 11:22:11 82° 77° (ENE) 834 3.0 -18.5°
Drops below altitude 10° 11:27:33 10° 350° (N) 2,420 5.6 -19.8°
Sets 11:29:54 0° 350° (N) 3,353 6.3 -20.4°
